Home > Weather > Finse > Past weeks

Flag for Norway Past Weather in Finse, Norway — Yesterday and Last 2 Weeks

Now
43 °F

Quite cool.


Feels Like: 39 °F
Forecast: 35 / 47 °F
Wind: 8 mph from West

Location: Finsevatn

Current Time: Aug 27, 2016 at 1:58:03 PM

Latest Report: Aug 27, 2016 at 1:00 PM


Visibility: N/A

Pressure: 30.07 "Hg (25.90 "Hg at 1221m altitude)

Humidity: 89%

Dew Point: 40 °F

Location of FinseLocation

Past Weather in Finse — Graph

°F

Finse Temperature Yesterday

Maximum temperature yesterday: 56 °F (at 1:00 PM)
Minimum temperature yesterday: 42 °F (at 11:00 PM)
Average temperature yesterday: 48 °F

High & Low Weather Summary for the Past Weeks

 TemperatureHumidityPressure
High66 °F (Aug 17, 4:00 PM)97% (Aug 13, 6:00 AM)30.24 "Hg (Aug 13, 6:00 AM)
Low40 °F (Aug 12, 12:00 PM)34% (Aug 17, 6:00 PM)29.50 "Hg (Aug 12, 8:00 PM)
Average49 °F84%29.96 "Hg
* Reported Aug 12 12:00 PM — Aug 27 12:00 PM, Finse, Weather by CustomWeather, © 2016

Note: Actual official high and low records may vary slightly from our data, if they occured in-between our weather recording intervals... More about our weather records

Advertising

Finse Weather History for the Previous 24 Hours

Scroll right to see more
 ConditionsComfort  
Time TempWeatherWind HumidityBarometerVisibility
12:00 PM
Sat, Aug 27
44 °FQuite cool.12 mph84%30.03 "HgN/A
11:00 AM44 °FQuite cool.10 mph89%30.01 "HgN/A
10:00 AM43 °FQuite cool.13 mph90%29.98 "HgN/A
9:00 AM42 °FQuite cool.12 mph90%29.95 "HgN/A
8:00 AM42 °FQuite cool.17 mph90%29.88 "HgN/A
7:00 AM42 °FQuite cool.22 mph89%29.87 "HgN/A
6:00 AM42 °FQuite cool.20 mph91%29.86 "HgN/A
5:00 AM42 °FQuite cool.14 mph91%29.87 "HgN/A
4:00 AM43 °FQuite cool.13 mph88%29.86 "HgN/A
3:00 AM44 °FQuite cool.15 mph86%29.82 "HgN/A
2:00 AM44 °FQuite cool.15 mph86%29.82 "HgN/A
1:00 AM44 °FQuite cool.14 mph86%29.79 "HgN/A
12:00 AM44 °FQuite cool.13 mph90%29.78 "HgN/A
11:00 PM
Fri, Aug 26
42 °FQuite cool.14 mph89%29.79 "HgN/A
10:00 PM44 °FQuite cool.13 mph90%29.76 "HgN/A
9:00 PM45 °FQuite cool.10 mph93%29.75 "HgN/A
8:00 PM45 °FQuite cool.14 mph93%29.72 "HgN/A
7:00 PM45 °FCool.14 mph94%29.73 "HgN/A
6:00 PM47 °FCool.17 mph87%29.68 "HgN/A
5:00 PM49 °FCool.15 mph89%29.65 "HgN/A
4:00 PM49 °FCool.16 mph86%29.63 "HgN/A
3:00 PM52 °FCool.13 mph85%29.61 "HgN/A
2:00 PM55 °FCool.10 mph86%29.55 "HgN/A
1:00 PM56 °FCool.10 mph88%29.53 "HgN/A
Weather by CustomWeather, © 2016

See weather overviewHow to use our weather pages